www.pogodaiklimat.ru

Погода и климат >> Архив погоды >> Польша >> Nowy Sacz


ПОГОДА в Nowy Sacz

  • Прогноз погоды в Nowy Sacz
  • Монитор погоды в Nowy Sacz
  • Климат города

АРХИВ ПОГОДЫ в Nowy Sacz

Время (UTC), дата Ветер
(напр.,м/с)
 
Видим.   Явления Облачность Т
(С)
Тd
(С)
f
(%)
Тe
(С)
Тes
(С)
Комфортность P
(гПа)
Po
(гПа)
Тmin
(С)
Tmax
(С)
R
(мм)
R24
(мм)
S
(см)
01 14.10 штиль 0 4600 м в посл. час морось н/о +5.9 +5.2 95 +5 +5 1028.3 991.8
02 14.10 В 1 9000 м дымка н/о +6.0 +5.3 95 +5 +5 1027.9 991.5
03 14.10 ЮВ 1 1200 м дымка н/о +5.0 +4.3 95 +4 +4 1028.0 991.4
05 14.10 штиль 0-18
{18}
1400 м сильная пыльная буря н/о +3.5 +2.9 96 +2 +2 1028.3 991.5
04 14.10 В 1 3400 м в посл. час морось н/о +4.5 +4.1 97 +3 +3 1028.1 991.5
06 14.10 В 1
{18}
8000 м в посл. час морось н/о +4.9 +4.5 97 +3 +3 1028.2 991.6 +3.4 +13.4
07 14.10 штиль 0 10 км дымка н/о +7.9 +7.0 94 +7 +7 1027.8 991.6
08 14.10 штиль 0 14 км н/о +11.3 +7.2 76 +11 +11 1027.0 991.3
09 14.10 С 1 23 км н/о +16.2 +8.2 59 +17 +17 1026.2 991.1
11 14.10 ЮВ 2 30 км н/о +22.9 +5.8 33 +23 +23 комфорт 1024.1 989.8
10 14.10 штиль 0 25 км н/о +19.9 +7.9 46 +21 +21 комфорт 1025.0 990.4
12 14.10 ЮВ 4
{9}
25 км н/о +23.8 +4.2 28 +23 +23 комфорт 1023.5 989.4
13 14.10 ЮВ 4
{9}
30 км н/о +23.3 +4.7 30 +23 +23 комфорт 1023.1 988.9
14 14.10 ЮВ 3 30 км н/о +23.1 +5.0 31 +23 +23 комфорт 1022.9 988.7
15 14.10 ЮВ 2
{9}
25 км н/о +22.2 +7.6 39 +23 +23 комфорт 1022.7 988.4
17 14.10 В 3 15 км н/о +17.0 +6.8 51 +17 +17 1023.6 988.7
16 14.10 В 2 30 км н/о +18.7 +7.2 47 +20 +20 1023.3 988.6
18 14.10 ЮВ 3
{9}
11 км н/о +15.6 +5.8 52 +15 +15 1023.7 988.6 +5.0 +24.1
19 14.10 ЮВ 3 16 км н/о +14.2 +5.0 54 +13 +13 1023.9 988.6
20 14.10 Ю 1 15 км н/о +11.6 +5.2 65 +12 +12 1024.5 988.9
21 14.10 В 1 15 км н/о +10.7 +5.2 69 +11 +11 1024.6 988.9
23 14.10 ЮВ 1 17 км н/о +9.0 +4.8 75 +9 +9 1025.3 989.3
22 14.10 В 1 14 км н/о +8.5 +5.4 81 +8 +8 1025.1 989.1
00 15.10 ЮВ 1 17 км н/о +7.8 +4.2 78 +7 +7 1025.2 989.1
01 15.10 СВ 2 23 км н/о +8.3 +4.1 75 +7 +7 1024.9 988.9
02 15.10 В 2 28 км н/о +8.3 +3.7 73 +7 +7 1024.7 988.7
03 15.10 ЮВ 1 17 км н/о +6.3 +4.1 86 +5 +5 1025.4 989.1
05 15.10 З 1 7000 м дымка н/о +4.2 +2.7 90 +3 +3 1025.8 989.2
04 15.10 СВ 1 22 км н/о +5.4 +3.2 86 +4 +4 1025.4 989.0
06 15.10 штиль 0
{15}
6000 м дымка н/о +4.8 +3.6 92 +4 +4 1025.8 989.3 +4.0 +15.7
07 15.10 СВ 1 18 км н/о +9.6 +5.0 73 +9 +9 1025.1 989.2
08 15.10 ЮЗ 1 20 км н/о +13.8 +5.4 57 +14 +14 1024.3 989.0
09 15.10 СВ 1 21 км н/о +16.9 +5.2 46 +18 +18 1023.8 988.8
11 15.10 СЗ 1 28 км н/о +21.2 +2.0 28 +21 +21 комфорт 1022.1 987.7
10 15.10 З 1 21 км н/о +19.3 +4.2 37 +21 +21 комфорт 1022.9 988.3
12 15.10 С 1 26 км н/о +22.9 +3.9 29 +23 +23 комфорт 1021.5 987.3
13 15.10 ЮВ 3 30 км н/о +23.7 +1.9 24 +23 +23 комфорт 1021.2 987.1
14 15.10 ЮВ 2
{7}
30 км н/о +23.1 +3.1 27 +23 +23 комфорт 1020.9 986.8
15 15.10 ЮВ 2
{7}
25 км н/о +22.4 +4.0 30 +22 +22 комфорт 1020.9 986.7
17 15.10 СВ 1 11 км н/о +13.9 +6.3 60 +14 +14 1022.8 987.5
16 15.10 С 1 13 км н/о +17.6 +5.2 44 +19 +19 1021.8 987.0
18 15.10 СВ 1
{7}
6000 м дымка н/о +11.3 +6.0 70 +11 +11 1023.3 987.7 +4.8 +24.0
19 15.10 Ю 1 6000 м дымка н/о +9.9 +6.2 78 +10 +10 1023.7 987.9
20 15.10 ЮЗ 1 6000 м дымка н/о +8.4 +5.3 81 +8 +8 1023.9 987.9
21 15.10 В 2 9000 м дымка н/о +8.0 +3.8 75 +6 +6 1023.7 987.7
23 15.10 В 2 11 км н/о +6.1 +2.9 80 +4 +4 1024.1 987.8
22 15.10 ЮВ 1 7000 м дымка н/о +6.5 +3.8 83 +5 +5 1024.0 987.8
00 16.10 ЮВ 1 10 км дымка н/о +4.7 +2.7 87 +3 +3 1024.3 987.8
01 16.10 штиль 0 7000 м дымка н/о +3.8 +2.6 92 +3 +3 1024.2 987.6
02 16.10 В 1 14 км н/о +4.5 +2.7 88 +3 +3 1023.9 987.4
03 16.10 штиль 0 5000 м дымка н/о +3.9 +2.9 93 +3 +3 1024.1 987.5
05 16.10 В 1 9000 м н/о +4.0 +2.5 90 +3 +3 1024.6 988.0
04 16.10 СВ 1 9000 м дымка н/о +4.3 +3.4 94 +3 +3 1024.1 987.6
06 16.10 В 1 6000 м дымка н/о +3.8 +2.9 94 +2 +2 1025.1 988.5 +3.5 +11.5
07 16.10 В 1 9000 м дымка н/о +7.4 +4.7 83 +7 +7 1024.9 988.7
08 16.10 Ю 1 19 км н/о +11.4 +4.4 62 +11 +11 1024.3 988.7
09 16.10 З 1 19 км н/о +14.6 +5.4 54 +15 +15 1023.6 988.4
11 16.10 Ю 1 24 км н/о +20.5 +4.9 36 +22 +22 комфорт 1022.2 987.7
10 16.10 Ю 1 22 км н/о +18.7 +5.9 43 +20 +20 1022.8 988.1
12 16.10 ЮЗ 1 25 км н/о +20.6 +3.8 33 +22 +22 комфорт 1021.8 987.3
13 16.10 С 1 27 км н/о +21.3 +4.4 33 +22 +22 комфорт 1021.4 987.0
14 16.10 З 1 30 км н/о +21.7 +4.3 32 +22 +22 комфорт 1021.3 987.0
15 16.10 С 1 21 км н/о +19.6 +6.7 43 +21 +21 комфорт 1021.6 987.0
17 16.10 СВ 1 8000 м дымка н/о +12.5 +8.4 76 +13 +13 1023.4 987.9
16 16.10 В 1 12 км н/о +16.4 +7.3 55 +17 +17 1022.4 987.4
18 16.10 В 1 5000 м дымка н/о +11.1 +6.8 75 +11 +11 1023.8 988.1 +3.9 +22.0
19 16.10 В 1 3100 м дымка н/о +8.8 +6.8 87 +8 +8 1024.4 988.4
20 16.10 ЮВ 2 5000 м дымка н/о +9.5 +6.0 79 +8 +8 1024.3 988.4
21 16.10 штиль 0 5000 м дымка н/о +7.7 +5.2 84 +7 +7 1024.6 988.5
23 16.10 СВ 1 6000 м дымка н/о +6.3 +4.8 90 +5 +5 1024.6 988.3
22 16.10 штиль 0 1900 м дымка н/о +6.8 +5.3 90 +6 +6 1024.5 988.3
00 17.10 штиль 0 5000 м дымка н/о +6.1 +4.6 90 +5 +5 1024.4 988.1
01 17.10 штиль 0 5000 м дымка н/о +6.0 +4.8 92 +5 +5 1024.5 988.2
02 17.10 ЮВ 1 5000 м дымка н/о +6.1 +4.4 89 +5 +5 1024.4 988.1
03 17.10 ЮВ 1 5000 м дымка н/о +6.1 +4.6 90 +5 +5 1024.3 988.0
05 17.10 Ю 1 5000 м дымка н/о +5.8 +4.8 93 +5 +5 1024.6 988.2
04 17.10 СВ 1 10 км н/о +6.4 +4.7 89 +5 +5 1024.3 988.0
06 17.10 штиль 0 6000 м дымка н/о +6.0 +5.1 94 +5 +5 1024.9 988.6 +5.8 +11.1
07 17.10 штиль 0 7000 м дымка н/о +7.1 +5.9 92 +6 +6 1024.8 988.6
08 17.10 С 1 9000 м дымка н/о +11.5 +7.0 74 +11 +11 1024.1 988.5
09 17.10 штиль 0 12 км н/о +14.8 +7.1 60 +15 +15 1023.3 988.1
11 17.10 З 1 17 км н/о +20.2 +5.0 37 +22 +22 комфорт 1021.4 986.9
10 17.10 штиль 0 20 км н/о +17.3 +5.9 47 +17 +17 1022.6 987.7
12 17.10 З 1 21 км н/о +21.1 +5.4 36 +22 +22 комфорт 1020.8 986.4
13 17.10 СЗ 1 24 км н/о +21.2 +7.1 40 +22 +22 комфорт 1020.3 986.0
14 17.10 СЗ 1 20 км н/о +21.3 +7.9 42 +22 +22 комфорт 1020.2 985.9
15 17.10 СЗ 1 16 км н/о +19.4 +7.8 47 +21 +21 комфорт 1020.3 985.8
17 17.10 В 1 7000 м дымка н/о +14.7 +8.6 67 +15 +15 1021.6 986.5
16 17.10 СВ 2 14 км н/о +18.5 +7.3 48 +19 +19 1020.8 986.1
18 17.10 В 1 4800 м дымка н/о +12.8 +8.7 76 +13 +13 1021.8 986.4 +6.0 +21.6
19 17.10 В 1 4900 м дымка н/о +12.2 +8.1 76 +12 +12 1022.0 986.5
20 17.10 В 2 6000 м дымка н/о +11.7 +7.4 75 +11 +11 1021.9 986.4
21 17.10 ЮВ 1 3100 м дымка н/о +10.0 +7.6 85 +10 +10 1022.2 986.5
23 17.10 В 1 6000 м дымка н/о +8.3 +6.9 91 +7 +7 1022.2 986.2
22 17.10 штиль 0 3000 м дымка н/о +9.0 +7.3 89 +8 +8 1022.3 986.4
00 18.10 ЮВ 1 400 м сильная пыльная буря н/о +7.4 +6.0 91 +6 +6 1022.1 986.0
01 18.10 В 1 7000 м в посл. час морось н/о +7.1 +5.9 92 +6 +6 1021.9 985.8
02 18.10 Ю 1 2700 м в посл. час морось н/о +6.3 +5.4 94 +5 +5 1021.9 985.7
03 18.10 В 1 7000 м дымка н/о +6.9 +5.4 90 +6 +6 1021.7 985.6
05 18.10 штиль 0 2700 м дымка н/о +6.4 +5.7 95 +5 +5 1021.7 985.5
04 18.10 Ю 1 4000 м дымка н/о +6.3 +5.4 94 +5 +5 1021.6 985.4
06 18.10 штиль 0 4100 м дымка н/о +6.9 +6.0 94 +6 +6 1022.0 985.9 +6.2 +12.9
07 18.10 Ю 1 7000 м дымка н/о +8.4 +7.0 91 +8 +8 1021.8 985.9
08 18.10 штиль 0 10 км н/о +10.8 +7.5 80 +10 +10 1021.2 985.6
09 18.10 СВ 1 12 км н/о +14.2 +6.8 61 +15 +15 1020.6 985.4
11 18.10 С 1 14 км н/о +19.0 +9.2 53 +21 +21 комфорт 1018.8 984.3
10 18.10 СЗ 1 16 км н/о +17.1 +8.2 56 +18 +18 1019.6 984.8
12 18.10 С 1 12 км н/о +18.8 +8.4 51 +20 +20 1018.7 984.1
13 18.10 С 2 12 км н/о +18.6 +7.4 48 +19 +19 1018.8 984.2
14 18.10 С 1 12 км н/о +18.0 +8.5 54 +19 +19 1019.0 984.3
15 18.10 СЗ 1 12 км н/о +17.1 +8.5 57 +18 +18 1019.0 984.2
17 18.10 В 1 6000 м дымка н/о +14.0 +9.6 75 +14 +14 1019.6 984.4
16 18.10 З 1 8000 м дымка н/о +15.5 +9.2 66 +16 +16 1019.3 984.3
18 18.10 штиль 0 4800 м дымка н/о +13.3 +9.2 76 +13 +13 1020.2 984.9 +6.9 +20.0
19 18.10 В 1 4200 м дымка н/о +12.3 +8.8 79 +12 +12 1020.5 985.1
20 18.10 В 1 4100 м дымка н/о +11.6 +8.4 81 +11 +11 1021.0 985.5
21 18.10 В 1 6000 м дымка н/о +11.5 +8.2 80 +11 +11 1021.0 985.5
23 18.10 В 1 6000 м дымка н/о +10.6 +8.0 84 +10 +10 1021.1 985.5
22 18.10 штиль 0 4300 м дымка н/о +10.8 +8.7 87 +10 +10 1021.2 985.6
00 19.10 СВ 1 4800 м дымка н/о +9.9 +8.3 90 +9 +9 1021.3 985.6
01 19.10 ЮЗ 1 5000 м дымка н/о +9.8 +8.4 91 +9 +9 1021.2 985.5
02 19.10 ЮВ 1 6000 м в посл. час дождь со снегом н/о +9.9 +8.3 90 +9 +9 1021.1 985.4
03 19.10 В 1 5000 м дымка н/о +9.8 +8.6 92 +9 +9 1021.3 985.6
05 19.10 штиль 0 4200 м дымка н/о +9.6 +8.5 93 +9 +9 1021.6 985.8
04 19.10 штиль 0 4000 м дымка н/о +9.7 +8.6 93 +9 +9 1021.7 985.9
06 19.10 штиль 0 3100 м дымка н/о +9.7 +8.5 92 +9 +9 1022.2 986.4 +9.5 +13.4 0.0
07 19.10 штиль 0 5000 м слабая морось н/о +10.8 +9.2 90 +10 +10 1022.1 986.5
08 19.10 штиль 0 5000 м в посл. час дождь со снегом н/о +12.3 +9.8 85 +12 +12 1022.2 986.7
09 19.10 С 1 5000 м дымка н/о +13.4 +10.4 82 +14 +14 1022.1 986.8
11 19.10 СЗ 1
{14}
7000 м дымка н/о +16.2 +11.1 72 +17 +17 1021.6 986.6
10 19.10 СЗ 1-15
{15}
6000 м дымка н/о +14.8 +10.6 76 +15 +15 1021.9 986.8
12 19.10 С 2
{15}
6000 м дымка н/о +15.9 +10.9 72 +16 +16 1021.4 986.4 0.0
13 19.10 С 1 4500 м дымка н/о +15.1 +10.7 75 +16 +16 1021.6 986.5
14 19.10 СЗ 2 4000 м дымка н/о +14.3 +10.1 76 +14 +14 1021.8 986.6
15 19.10 С 1 3700 м дымка н/о +13.8 +9.8 77 +14 +14 1022.0 986.7
17 19.10 С 1 1800 м дымка н/о +11.4 +10.0 91 +11 +11 1023.4 987.8
16 19.10 С 1 2700 м дымка н/о +12.5 +9.7 83 +13 +13 1022.5 987.1
18 19.10 СЗ 1 2000 м дымка н/о +11.7 +9.9 89 +11 +11 1023.7 988.1 +9.7 +16.5 0.0
19 19.10 СЗ 1 2200 м дымка н/о +11.7 +9.6 87 +12 +12 1024.1 988.5
20 19.10 С 1 2400 м дымка н/о +11.7 +9.4 86 +12 +12 1024.4 988.8
21 19.10 СЗ 2 1900 м дымка н/о +11.1 +9.4 89 +10 +10 1024.6 988.9
23 19.10 С 3 1200 м дымка н/о +10.0 +8.9 93 +8 +8 1025.3 989.5
22 19.10 С 2
{7}
1600 м дымка н/о +10.6 +9.2 91 +9 +9 1024.9 989.1
00 20.10 С 2
{7}
1300 м дымка н/о +9.6 +8.8 95 +8 +8 1025.6 989.7
01 20.10 С 1 2000 м дымка н/о +9.5 +8.6 94 +9 +9 1025.3 989.4
02 20.10 штиль 0 2000 м дымка н/о +9.6 +8.7 94 +9 +9 1025.0 989.1
03 20.10 штиль 0 2500 м дымка н/о +9.8 +8.7 93 +9 +9 1025.1 989.2
05 20.10 штиль 0 1500 м дымка н/о +9.8 +8.9 94 +9 +9 1025.2 989.3
04 20.10 штиль 0 2100 м в посл. час дождь со снегом н/о +9.8 +8.9 94 +9 +9 1025.3 989.4
06 20.10 штиль 0 1300 м дымка н/о +9.8 +9.0 95 +9 +9 1025.8 989.9 +9.5 +11.8 0.0
07 20.10 штиль 0 1500 м дымка н/о +9.9 +9.1 95 +9 +9 1026.1 990.2
08 20.10 штиль 0 3200 м дымка н/о +10.4 +9.2 92 +10 +10 1026.1 990.3
09 20.10 штиль 0 3800 м дымка н/о +11.0 +8.9 87 +10 +10 1025.7 990.0
11 20.10 СЗ 1 4000 м дымка н/о +11.3 +9.2 87 +11 +11 1025.7 990.0
10 20.10 З 1 4900 м дымка н/о +10.9 +8.8 87 +11 +11 1026.0 990.2
12 20.10 З 1 4800 м дымка н/о +11.3 +9.0 86 +11 +11 1025.6 989.9
13 20.10 СЗ 1 5000 м дымка н/о +11.6 +9.0 84 +11 +11 1025.0 989.4
14 20.10 штиль 0 4600 м дымка н/о +11.4 +8.8 84 +11 +11 1024.7 989.0
15 20.10 СЗ 1 4400 м дымка н/о +11.3 +8.9 85 +11 +11 1024.6 988.9
17 20.10 штиль 0 2500 м дымка н/о +10.8 +8.9 88 +10 +10 1024.4 988.7
16 20.10 С 1 4100 м дымка н/о +11.1 +8.5 84 +11 +11 1024.5 988.8
18 20.10 З 3 3800 м морось н/о +10.5 +8.4 87 +8 +8 1024.6 988.8 +9.7 +11.6 0.0
19 20.10 С 3-8
{12}
4600 м слабый дождь н/о +8.5 +7.3 92 +6 +6 1025.3 989.3
20 20.10 СЗ 3-9
{9}
5000 м морось н/о +7.7 +6.3 91 +5 +5 1026.1 989.9
21 20.10 СЗ 2
{12}
9000 м слаб. ливневой дождь н/о +7.4 +5.4 87 +5 +5 1026.3 990.1
23 20.10 штиль 0 9000 м слабая морось н/о +6.9 +4.7 86 +6 +6 1025.8 989.5
22 20.10 З 2 11 км ливневой дождь н/о +7.1 +4.7 85 +5 +5 1026.0 989.8
00 21.10 З 2
{12}
12 км н/о +6.7 +3.8 82 +4 +4 1025.5 989.2 2

 

Местоположение метеостанции Nowy Sacz (Польша): широта 49.62 долгота 20.70 высота над уровнем моря 295 м.

В архиве по умолчанию представлена погода в Nowy Sacz за последнюю неделю. Архивные данные за месяц целиком и за предыдущие месяцы, начиная с января 2011 года, Вы можете получить, выбрав интересующий диапазон дат из раскрывающегося списка и нажав кнопку "Ввод!".


*Определитесь, кто Вы:
робот инопланетянин человек

Внимание! Время в таблицах - всемирное. Для получения местного времени необходимо прибавить поправку, которая в Nowy Sacz равна 1 ч.

Смотрите также архив погоды в соседних городах и на ближайших метеорологических станциях:

Погода в Tarnow (Польша) (50 км)
Погода в Lomnicky Stit (Словакия) (58 км)
Погода в Zakopane (Польша) (64 км)
Погода в Kasprowy Wierch (Польша) (68 км)
Погода в Poprad (Словакия) (69 км)
Погода в Poprad-Ganovce (Словакия) (71 км)
Погода в Strbske Pleso (Словакия) (71 км)
Погода в Krosno (Польша) (76 км)
Погода в Liesek (Словакия) (79 км)
Погода в Presov (Словакия) (80 км)

Пояснения к столбцам:

Ветер - указаны скорость ветра в м/с - средняя за 10 мин, порывы в срок и между сроками (в фигурных скобках) и направление, откуда дует ветер: С - северный, СВ - северо-восточный, В - восточный, ЮВ - юго-восточный, Ю - южный, ЮЗ - юго-западный, З - западный, СЗ - северо-западный.
Видимость - горизонтальная дальность видимости в метрах или километрах. При видимости от 1 до 10 км при отсутствии осадков обычно наблюдается дымка, при ухудшении видимости до 1 км и менее - туман. В сухую погоду видимость может ухудшаться дымом, пылью или мглою.
Явления - указаны атмосферные явления, наблюдавшиеся в срок или в последний час перед сроком; фигурными скобками обозначены явления, наблюдавшиеся между сроками (за 1-3 часа до срока); квадратными скобками обозначены град или гололедные отложения с указанием их диаметра в мм.
Облачность - указаны через наклонную черту общая и нижняя облачность в баллах и высота нижней границы облаков в метрах; квадратными скобками обозначены формы облаков: Ci - перистые, Cs - перисто-слоистые, Cc - перисто-кучевые, Ac - высококучевые, As - высокослоистые, Sc - слоисто-кучевые, Ns - слоисто-дождевые, Cu - кучевые, Cb - кучево-дождевые. Подробнее классификацию облаков см. в Атласе облаков (PDF).
T - Температура воздуха - температура, измеренная на высоте 2 м над землей.
Td - Температура точки росы - температура, при понижении до которой содержащийся в воздухе водяной пар достигнет насыщения.
f - Относительная влажность воздуха - влажноcть воздуха, измеренная на высоте 2 м над землей.
Te - Эффективная температура - температура, которую ощущает одетый по сезону человек в тени. Характеристика душности погоды. При расчете учитывается влияние влажности воздуха и скорости ветра на теплоощущения человека.
Tes - Эффективная температура на солнце - температура, которую ощущает человек, с поправкой на солнечный нагрев. Характеристика знойности погоды. Зависит от высоты солнца над горизонтом, облачности и скорости ветра. Ночью, в пасмурную погоду, а также при ветре 12 м/с и более поправка равна нулю.
P - Атмосферное давление - приведенное к уровню моря атмосферное давление.
Po - Атмосферное давление - измеренное на уровне метеостанции атмосферное давление.
Tmin - Минимальная температура - минимум температуры воздуха на высоте 2 м над землей.
Tmax - Максимальная температура - максимум температуры воздуха на высоте 2 м над землей.
R - Количество осадков - Количество выпавших осадков за период времени, мм. При наведении курсора мыши на число - период времени, за который выпало указанное количество осадков.
R24 - Количество осадков - Количество выпавших осадков за 24 часа, мм.
S - Снежный покров - Высота снежного покрова, см. При наведении курсора мыши на число - состояние снежного покрова и степень покрытия местности в баллах.